Probability
0 0 0 0 0 0 3 3 0 0 3 3 6 19 19 16 19 26 23 23 23 23 26 29 29 32 35 35 32 35 35 39 45 45 48 45 45 39 39 39 32 35 35 32
0 0 0 0 0 0 0 3 3 3 0 6 6 16 19 16 13 13 16 16 19 16 19 23 26 29 32 32 32 32 29 29 32 35 42 39 39 35 39 42 32 26 29 26
0 0 0 0 0 0 0 0 3 6 3 6 16 19 19 13 13 19 23 26 26 26 23 26 26 26 29 26 32 35 39 35 32 26 29 23 35 35 32 29 26 23 23 23
0 0 0 0 3 3 3 3 3 3 13 13 19 6 13 19 19 29 29 23 19 26 23 23 19 23 23 26 26 23 23 32 32 32 39 35 29 29 29 29 32 29 19 19
0 0 0 0 0 0 0 0 6 10 16 19 13 16 16 19 26 26 23 19 19 19 16 19 19 23 26 23 19 16 19 16 26 29 26 32 32 35 23 26 29 23 26 23
0 0 0 0 0 0 0 0 13 16 16 16 10 16 16 16 26 19 19 16 16 16 19 26 23 23 23 19 10 10 13 13 16 19 19 23 29 32 26 26 32 29 32 29
0 0 0 0 0 3 0 0 6 13 16 16 13 16 19 23 19 19 16 16 13 10 10 10 13 13 13 6 3 6 13 13 13 13 16 19 19 26 29 19 26 29 29 26
0 0 0 0 3 3 0 3 6 13 13 16 13 16 23 23 19 16 10 10 6 6 10 6 3 6 10 10 3 6 10 10 10 10 10 13 13 16 23 23 26 29 29 29
0 0 0 0 0 0 6 10 10 10 3 3 10 13 16 16 13 6 6 6 6 6 6 6 3 3 6 6 3 6 6 6 6 10 10 10 16 16 19 23 23 26 23 23
0 0 0 3 0 0 6 6 6 6 3 6 6 3 3 3 3 6 6 6 6 6 6 3 3 3 0 0 3 3 6 3 3 3 10 10 16 16 19 19 23 16 16 19
3 0 0 0 0 0 0 6 6 6 6 3 3 3 3 3 3 3 3 3 6 6 6 3 0 0 0 0 0 0 0 0 0 0 3 3 0 3 6 10 10 6 10 3
0 3 6 0 0 0 0 3 3 6 10 3 3 6 3 3 0 0 0 0 0 0 0 0 0 0 0 0 0 0 0 0 0 0 0 0 0 0 0 3 0 0 0 0
0 3 3 0 0 0 0 0 3 6 3 6 0 0 0 0 0 0 0 0 0 0 0 0 0 0 0 0 0 0 0 0 0 0 0 0 0 0 0 0 0 0 0 0
0 0 0 0 0 0 0 0 0 0 0 0 0 0 0 0 0 0 0 0 0 0 0 0 0 0 0 0 0 0 0 0 0 0 0 0 3 3 0 3 3 3 0 0
0 0 0 0 0 0 0 0 0 0 3 3 3 3 0 0 0 0 0 0 0 0 0 0 0 0 0 0 0 0 0 0 0 0 0 0 3 3 3 3 3 3 3 0
0 0 0 0 0 0 0 0 0 0 3 3 3 0 0 0 0 0 0 0 0 0 0 0 0 0 0 0 0 0 0 0 0 0 0 0 3 3 3 3 6 3 3 0
0 0 0 0 0 0 0 0 0 0 0 0 0 0 0 0 0 0 0 0 0 0 0 0 0 0 0 0 0 0 0 0 0 0 0 0 3 0 0 0 0 3 6 3
0 0 0 0 0 0 0 0 0 0 0 0 0 0 0 0 0 0 0 0 0 0 0 0 0 0 0 0 0 0 0 0 0 0 0 0 0 0 0 0 0 3 3 0
0 0 0 0 0 0 0 0 0 0 0 0 0 0 0 0 0 0 0 0 0 0 0 0 0 0 0 0 0 0 0 0 0 0 0 0 0 0 0 0 0 3 3 3
0 0 0 0 0 0 0 0 0 0 0 0 0 0 0 0 0 0 0 0 0 0 0 0 0 0 0 0 0 0 0 0 0 0 0 0 0 0 0 0 0 3 3 3
0 0 0 0 0 0 0 0 0 0 0 0 0 0 0 0 0 0 0 0 0 0 0 0 0 0 0 0 0 0 0 0 0 0 0 0 0 0 0 0 0 3 3 3
0 0 0 0 0 0 0 0 0 0 0 0 0 0 0 0 0 0 0 0 0 0 0 0 0 0 0 0 0 0 0 0 0 0 0 0 0 0 0 0 3 3 3 3
0 0 0 0 0 0 0 0 0 0 0 0 0 0 0 0 0 0 0 0 0 0 0 0 0 0 0 0 0 0 0 0 0 0 0 0 0 0 0 0 3 3 3 3
0 0 0 0 0 0 0 0 0 0 0 0 0 0 0 0 0 0 0 0 0 0 0 0 0 0 0 0 0 0 0 0 0 0 0 0 0 0 0 0 3 3 3 3
0 0 0 0 0 0 0 0 0 0 0 0 0 0 0 0 0 0 0 0 0 0 0 0 0 0 0 0 0 0 0 0 0 0 0 0 0 0 0 0 3 3 3 3
0 0 0 0 0 0 0 0 0 0 0 0 0 0 0 0 0 0 0 0 0 0 0 0 0 0 0 0 0 0 0 0 0 0 0 0 0 0 0 3 3 3 3 0
0 0 0 0 0 0 0 0 0 0 0 0 0 0 0 0 0 0 0 0 0 0 0 0 0 0 0 0 0 0 0 0 0 0 0 0 0 0 0 0 0 0 0 0
Height
5822 5825 5827 5829 5831 5833 5835 5837 5839 5841 5843 5845 5847 5848 5849 5850 5851 5852 5853 5853 5853 5854 5854 5854 5854 5853 5853 5853 5852 5851 5851 5851 5851 5851 5850 5850 5850 5849 5848 5848 5848 5848 5848 5847
5813 5816 5817 5820 5822 5825 5827 5829 5831 5833 5835 5837 5838 5840 5842 5843 5844 5844 5845 5845 5845 5846 5847 5846 5846 5846 5845 5845 5845 5844 5844 5843 5843 5843 5843 5842 5842 5842 5841 5842 5841 5841 5841 5840
5804 5807 5808 5810 5814 5816 5819 5821 5823 5824 5827 5829 5831 5832 5834 5835 5836 5837 5837 5837 5838 5838 5839 5839 5839 5839 5838 5838 5837 5837 5837 5837 5836 5836 5835 5834 5833 5834 5834 5833 5833 5833 5833 5833
5794 5798 5798 5804 5805 5808 5810 5812 5814 5816 5818 5820 5822 5824 5825 5826 5828 5829 5829 5829 5829 5830 5830 5831 5830 5829 5829 5829 5829 5829 5829 5829 5828 5827 5826 5826 5826 5826 5826 5825 5825 5825 5824 5824
5785 5786 5789 5793 5796 5799 5801 5803 5805 5807 5809 5811 5812 5814 5816 5817 5818 5820 5820 5820 5820 5821 5821 5822 5822 5821 5821 5820 5820 5820 5820 5820 5819 5818 5817 5816 5817 5817 5817 5817 5816 5815 5815 5815
5775 5777 5780 5785 5788 5789 5792 5793 5796 5798 5800 5801 5803 5805 5807 5808 5809 5810 5810 5811 5811 5812 5812 5813 5813 5813 5813 5812 5812 5812 5811 5811 5810 5810 5808 5807 5807 5807 5807 5807 5807 5807 5806 5806
5767 5769 5771 5776 5778 5781 5784 5786 5787 5789 5790 5791 5793 5795 5796 5797 5798 5799 5800 5801 5801 5801 5802 5803 5803 5803 5802 5802 5802 5802 5802 5801 5801 5800 5799 5797 5796 5796 5796 5797 5797 5797 5797 5797
5758 5761 5766 5767 5769 5772 5774 5775 5777 5779 5780 5782 5783 5784 5785 5787 5787 5788 5789 5790 5790 5791 5791 5791 5791 5791 5792 5791 5791 5791 5791 5791 5790 5789 5788 5788 5787 5786 5786 5786 5786 5787 5787 5786
5751 5754 5756 5757 5760 5762 5764 5766 5767 5769 5771 5772 5773 5774 5775 5776 5777 5778 5778 5778 5779 5780 5780 5780 5780 5780 5780 5780 5779 5780 5780 5780 5779 5778 5777 5776 5776 5776 5776 5776 5775 5776 5775 5775
5741 5744 5746 5748 5750 5752 5754 5756 5757 5759 5761 5762 5763 5764 5765 5765 5766 5766 5766 5767 5767 5768 5768 5768 5768 5768 5768 5768 5768 5768 5767 5767 5766 5766 5765 5765 5764 5765 5765 5765 5764 5764 5763 5763
5733 5735 5737 5740 5741 5743 5744 5746 5747 5748 5750 5751 5752 5753 5754 5754 5755 5755 5755 5755 5755 5755 5756 5756 5756 5756 5756 5756 5755 5755 5755 5754 5754 5754 5754 5753 5753 5753 5753 5753 5752 5752 5751 5751
5725 5727 5729 5731 5732 5734 5735 5736 5737 5738 5739 5740 5741 5741 5742 5743 5744 5744 5744 5743 5743 5743 5743 5743 5743 5743 5743 5743 5742 5742 5742 5742 5741 5741 5742 5742 5742 5742 5742 5741 5741 5740 5739 5739
5716 5718 5720 5722 5724 5725 5726 5727 5728 5729 5729 5730 5730 5730 5731 5731 5732 5733 5733 5732 5732 5731 5731 5731 5731 5730 5730 5730 5730 5730 5729 5729 5729 5729 5729 5729 5729 5730 5730 5730 5729 5729 5729 5728
5708 5710 5712 5714 5715 5716 5717 5718 5718 5719 5719 5719 5719 5719 5719 5720 5721 5721 5721 5721 5720 5720 5719 5719 5719 5719 5719 5718 5718 5718 5718 5718 5717 5717 5717 5716 5717 5717 5717 5718 5718 5717 5717 5716
5700 5701 5703 5705 5706 5707 5708 5709 5709 5710 5710 5709 5709 5709 5709 5710 5710 5711 5711 5710 5709 5708 5708 5708 5708 5708 5708 5707 5707 5707 5707 5707 5706 5706 5706 5705 5705 5704 5705 5705 5706 5706 5705 5705
5693 5694 5695 5697 5698 5699 5700 5700 5701 5701 5701 5700 5700 5700 5700 5700 5701 5701 5701 5701 5700 5699 5699 5698 5698 5698 5697 5697 5696 5696 5696 5696 5695 5694 5694 5694 5694 5693 5693 5694 5694 5693 5693 5693
5687 5688 5689 5690 5691 5692 5692 5692 5692 5693 5693 5693 5693 5693 5693 5693 5693 5693 5692 5692 5691 5690 5690 5689 5688 5688 5687 5687 5687 5687 5686 5686 5685 5684 5684 5684 5683 5683 5683 5683 5683 5682 5682 5682
5681 5682 5683 5684 5685 5685 5685 5685 5685 5686 5686 5686 5686 5686 5686 5686 5685 5685 5684 5683 5682 5681 5680 5679 5679 5678 5678 5678 5677 5677 5677 5676 5675 5674 5674 5674 5673 5673 5673 5672 5672 5672 5671 5671
5676 5677 5677 5678 5679 5679 5679 5679 5680 5680 5680 5680 5680 5680 5679 5679 5678 5677 5677 5675 5674 5673 5672 5671 5670 5670 5669 5669 5668 5668 5667 5667 5666 5665 5665 5664 5664 5664 5663 5663 5662 5662 5661 5661
5671 5672 5672 5673 5673 5674 5674 5674 5674 5674 5674 5674 5674 5674 5673 5672 5671 5671 5670 5668 5667 5666 5664 5663 5662 5662 5661 5660 5660 5659 5659 5658 5657 5657 5656 5656 5655 5655 5654 5653 5652 5651 5651 5650
5666 5667 5668 5668 5668 5669 5669 5669 5669 5669 5669 5669 5669 5668 5667 5666 5665 5664 5663 5662 5661 5659 5658 5656 5655 5654 5653 5653 5652 5652 5651 5651 5650 5649 5649 5648 5647 5646 5645 5644 5643 5642 5641 5641
5663 5663 5663 5664 5664 5664 5664 5664 5665 5665 5664 5664 5663 5663 5662 5661 5660 5658 5657 5656 5655 5653 5652 5650 5649 5648 5647 5646 5645 5645 5645 5644 5643 5642 5642 5641 5640 5638 5637 5636 5635 5634 5633 5632
5659 5660 5660 5660 5660 5660 5660 5660 5660 5660 5660 5659 5659 5658 5657 5656 5654 5653 5652 5651 5649 5648 5646 5645 5643 5642 5641 5640 5640 5639 5638 5638 5637 5636 5635 5634 5633 5631 5630 5629 5628 5627 5626 5625
5656 5656 5657 5657 5656 5656 5656 5656 5656 5656 5655 5655 5654 5653 5652 5651 5650 5648 5647 5646 5644 5643 5641 5640 5638 5637 5636 5635 5634 5634 5633 5632 5631 5630 5629 5628 5626 5625 5624 5623 5622 5620 5619 5617
5653 5653 5653 5653 5653 5653 5653 5652 5652 5652 5651 5650 5650 5649 5648 5647 5646 5644 5643 5641 5640 5638 5637 5635 5634 5633 5632 5631 5630 5629 5628 5627 5626 5625 5623 5622 5621 5619 5618 5617 5615 5614 5612 5611
5650 5650 5650 5650 5650 5649 5649 5649 5648 5648 5647 5647 5646 5645 5644 5643 5642 5640 5639 5638 5637 5635 5633 5632 5631 5629 5628 5627 5626 5625 5624 5623 5622 5620 5618 5617 5615 5614 5613 5611 5609 5608 5606 5604
5648 5648 5647 5647 5647 5646 5646 5646 5645 5645 5644 5644 5643 5642 5641 5639 5638 5637 5636 5635 5633 5632 5631 5629 5628 5627 5625 5624 5623 5621 5620 5619 5617 5616 5614 5612 5610 5609 5607 5605 5604 5602 5600 5598
Wind_Speed
33 33 34 35 35 35 35 35 35 34 33 31 29 28 27 26 26 26 25 25 25 25 26 26 26 25 25 25 24 23 23 23 23 23 23 24 25 25 24 23 22 22 21 21
35 34 35 36 36 36 35 34 35 35 34 32 32 30 28 27 27 27 27 27 27 27 27 28 28 27 26 25 26 26 26 26 26 27 26 26 26 26 26 25 24 23 23 24
37 37 37 38 37 36 36 35 35 35 34 33 33 31 30 29 28 29 29 28 28 28 28 29 30 30 29 28 28 28 29 29 28 29 28 28 27 27 27 27 26 26 26 26
38 37 39 38 36 36 36 36 35 35 35 35 35 34 32 32 31 30 31 30 31 31 31 31 32 31 31 31 31 30 30 30 30 30 30 30 29 29 30 30 30 30 29 28
37 37 38 37 36 34 34 35 34 34 34 34 34 35 34 34 33 33 33 34 34 34 34 34 34 33 33 33 32 31 31 30 30 31 31 32 32 32 32 32 32 32 32 31
36 37 37 35 34 33 34 35 34 34 34 35 35 35 34 35 35 35 35 35 37 37 37 36 36 34 34 34 33 33 33 33 32 32 32 32 34 34 34 33 33 33 33 33
36 37 37 36 34 33 34 34 34 34 35 35 36 36 36 36 36 36 36 37 38 39 39 38 37 37 37 36 35 35 35 34 34 34 34 35 35 35 35 34 35 34 34 34
36 37 37 36 35 34 35 35 34 34 35 35 36 36 37 38 38 38 39 39 39 39 40 40 40 40 40 38 36 35 36 37 37 37 38 38 37 36 37 36 36 35 35 35
35 35 35 36 36 36 36 36 37 37 36 36 36 37 37 38 38 39 39 40 40 40 40 41 41 40 40 38 38 38 38 38 39 38 39 39 38 37 36 36 37 37 37 36
34 34 34 35 36 36 37 37 37 37 37 37 36 37 37 38 38 38 38 40 41 42 41 41 41 41 41 40 40 40 40 39 38 38 38 38 38 37 37 37 38 38 37 37
33 33 34 34 34 35 35 35 36 37 38 38 37 37 37 37 37 37 38 40 41 41 41 41 42 42 42 42 42 41 41 41 39 39 37 37 36 37 38 38 39 38 37 38
32 32 33 33 33 33 33 34 35 36 36 37 37 37 37 37 38 38 38 39 40 40 41 40 40 41 41 42 42 41 40 40 39 38 37 37 38 38 38 38 37 38 37 36
30 30 31 31 32 32 33 33 33 34 34 35 36 36 36 36 37 38 38 38 39 39 39 38 38 38 39 39 39 38 38 37 37 37 38 38 37 37 37 37 37 37 37 37
29 29 30 30 30 31 32 32 32 33 33 34 34 35 34 35 35 36 36 36 36 36 36 36 36 36 36 36 36 35 35 36 36 36 35 35 36 36 35 35 36 36 36 36
28 28 28 29 29 29 29 29 29 30 31 32 31 30 31 32 33 34 33 33 33 33 33 33 34 33 32 33 33 33 33 34 34 34 35 35 35 34 35 34 35 36 36 36
24 25 25 26 26 27 27 27 27 27 27 26 26 27 28 28 29 30 31 31 30 29 30 30 30 30 30 30 31 31 31 31 32 32 33 33 32 33 34 34 34 35 35 35
21 22 22 23 24 24 24 24 25 24 24 23 23 23 24 24 25 25 26 27 27 27 28 29 28 28 28 29 29 29 29 30 30 30 30 31 31 32 32 33 33 33 33 34
19 20 20 20 20 21 21 21 20 20 20 21 21 21 21 21 22 23 24 25 25 26 26 26 26 26 27 28 28 28 28 28 29 29 29 29 29 30 30 29 30 30 30 31
16 17 17 18 18 18 18 18 17 18 18 18 18 19 19 20 21 22 22 23 23 24 24 24 25 25 26 26 27 26 27 27 27 27 27 28 28 28 28 28 29 30 30 30
15 15 15 16 17 17 17 16 16 16 16 16 17 18 19 19 20 21 21 21 21 22 22 23 24 24 24 24 24 24 25 25 24 25 25 27 27 27 27 27 28 28 28 28
14 14 14 14 15 15 15 15 15 15 15 15 17 18 18 18 19 19 19 19 19 19 20 20 21 21 21 21 22 22 22 23 23 23 24 24 25 25 25 25 25 25 25 25
13 13 13 13 14 14 14 14 14 14 15 15 16 16 16 17 18 18 18 18 18 18 18 18 19 19 19 20 20 20 21 22 22 22 21 22 22 22 22 22 22 22 23 23
11 11 11 12 12 12 12 12 12 13 13 14 14 15 16 16 16 17 17 17 17 18 18 18 18 17 17 18 18 19 19 20 20 20 20 20 20 20 19 19 19 20 21 21
10 10 10 10 10 11 11 12 12 13 13 13 14 15 15 15 15 15 16 16 16 16 17 16 16 16 16 15 16 16 16 17 17 17 18 18 18 17 17 18 18 19 20 20
9 10 10 10 10 10 11 11 12 12 13 13 14 14 13 14 14 14 14 14 13 13 13 13 14 14 14 14 14 14 14 15 16 17 17 17 18 18 18 18 19 19 20 20
9 9 9 9 10 10 10 10 10 10 11 11 11 12 12 12 12 12 12 12 12 12 12 12 12 13 13 13 13 13 14 14 15 15 15 16 17 17 18 19 20 20 20 20
7 8 8 8 8 8 8 8 8 9 9 10 10 10 11 11 11 10 11 11 11 12 12 12 12 12 12 13 13 14 15 15 16 16 16 16 17 17 18 18 19 20 20 21
Wind_Direction
248 248 248 247 247 248 251 253 256 259 261 264 267 268 270 271 270 268 267 266 266 267 268 269 271 273 274 275 275 275 272 273 271 270 270 273 275 275 275 272 271 273 274 275
251 251 251 250 249 250 252 255 256 258 260 262 264 267 268 270 270 269 268 267 269 269 271 270 272 274 273 275 275 275 274 275 275 273 272 275 276 274 272 271 272 272 273 275
251 252 253 253 251 252 253 255 256 257 259 261 262 264 266 266 266 268 269 269 270 271 272 274 275 275 273 272 273 274 277 276 278 274 275 278 277 275 273 270 271 272 272 275
253 253 254 255 255 255 255 255 257 259 260 261 262 262 264 265 265 266 268 269 270 271 273 275 277 275 274 275 275 276 277 276 277 275 274 274 277 273 273 273 272 272 272 274
254 255 256 255 256 257 257 257 258 259 261 262 263 262 263 265 265 266 267 268 269 271 272 275 277 278 277 278 276 277 279 280 279 277 275 276 275 272 272 272 272 273 274 276
254 255 256 257 257 258 258 259 258 260 261 262 262 261 262 264 267 267 266 265 267 269 271 273 274 276 278 278 278 278 278 279 279 278 278 277 274 272 272 273 273 274 276 276
253 255 257 258 259 258 258 260 260 261 262 262 263 263 263 263 265 267 267 265 266 268 269 271 271 273 275 275 276 277 276 277 278 278 278 277 274 273 272 272 272 273 275 274
252 254 256 257 258 258 259 260 261 263 263 263 263 263 264 264 265 267 267 268 269 269 269 270 271 272 274 273 273 275 276 276 277 276 275 276 276 273 271 271 271 272 273 273
251 252 255 256 258 258 259 260 261 263 263 264 265 266 266 268 268 267 268 268 269 270 270 270 270 272 272 273 274 275 276 276 276 275 275 274 274 273 273 273 272 272 272 272
252 252 254 256 258 259 260 261 262 263 263 263 265 266 267 268 269 269 269 269 268 269 270 270 270 271 272 273 274 274 275 275 274 274 275 274 273 272 273 273 274 271 270 272
253 254 255 256 258 260 261 262 263 263 263 263 263 264 266 266 267 269 271 271 270 271 271 272 271 271 272 272 273 275 276 276 275 276 273 274 273 273 273 273 274 273 272 272
255 256 257 258 260 261 263 264 264 264 265 264 264 263 264 266 268 269 270 271 272 272 271 272 272 272 272 272 273 274 275 275 275 274 273 273 272 270 271 272 273 274 273 272
255 256 257 258 260 261 262 265 266 266 266 266 265 266 266 267 268 270 271 271 271 272 272 272 273 272 272 273 272 272 272 273 274 275 274 273 271 270 270 270 271 272 272 272
255 257 258 259 262 263 264 265 266 266 268 268 268 267 266 266 267 270 272 272 272 273 273 273 273 272 272 272 271 271 272 273 274 275 275 273 271 270 270 270 270 271 273 273
255 258 261 262 264 265 267 267 266 268 270 271 269 267 267 267 268 269 271 273 273 272 272 273 273 273 273 272 272 273 273 274 274 275 274 274 273 270 269 269 270 271 272 272
258 262 264 264 266 268 269 267 266 268 270 271 267 266 267 269 270 269 270 272 272 272 272 273 274 273 274 275 275 274 274 275 276 275 274 274 273 272 270 271 270 271 271 270
258 260 263 264 266 268 268 266 268 269 270 271 271 270 270 271 271 272 275 277 276 275 276 276 275 274 274 275 275 274 275 276 277 276 274 274 275 274 274 273 273 272 271 270
259 259 261 262 263 266 266 268 269 269 270 271 270 272 273 274 274 275 277 278 279 279 278 277 275 274 274 275 275 274 275 276 278 278 277 277 277 277 276 274 274 273 272 272
257 258 260 261 262 263 265 267 268 268 267 269 271 275 278 278 278 279 279 278 279 280 280 279 278 277 278 278 277 275 277 278 279 279 278 278 278 277 276 276 276 274 274 275
258 260 263 265 265 264 263 265 268 270 270 272 274 277 280 281 280 280 279 280 281 282 282 281 280 279 279 279 277 278 279 279 280 279 279 278 278 278 277 278 277 276 276 277
258 262 265 265 265 264 266 268 269 270 273 277 279 279 280 283 283 282 282 283 283 285 287 285 283 280 279 279 280 280 279 279 281 281 280 280 281 281 279 279 277 276 277 277
262 265 266 269 270 269 268 271 271 272 275 278 279 280 282 286 286 285 285 285 286 288 289 288 286 284 281 281 281 280 280 281 281 282 283 282 281 281 281 279 277 277 278 278
262 266 270 273 273 272 271 271 273 276 279 282 283 284 287 289 288 287 286 286 287 289 289 289 290 288 286 284 284 284 284 284 284 284 285 285 284 283 280 279 279 280 282 282
265 268 271 275 275 273 272 272 274 278 281 283 288 290 290 290 289 289 290 289 289 291 291 292 292 292 291 288 287 287 287 288 289 288 288 287 286 285 284 283 282 283 285 286
272 273 274 274 275 275 275 277 279 281 283 287 290 292 293 294 293 293 296 297 294 297 299 295 293 291 290 289 289 290 291 293 294 293 291 289 289 288 287 288 288 287 289 290
278 280 277 275 278 281 281 281 282 284 286 289 292 296 298 298 296 296 298 300 301 302 302 301 299 297 296 295 295 294 295 297 298 297 295 294 293 292 291 290 291 291 292 294
281 280 282 285 285 284 286 289 290 291 294 298 300 300 300 301 299 298 299 301 301 301 302 303 304 304 303 303 302 300 300 301 301 302 301 298 296 296 296 294 293 293 294 295